This is the latest recevied weather packets stored in our database for station/object KG5APU. If no packets are shown the sender has not sent any weather packets the latest 10 day(s).
| Time | Temp. | Humidity | Pressure | Rain* | Wind** | Luminosity | Snow |
|---|---|---|---|---|---|---|---|
| 1787861777 | 36.11° C | 45% | 1015.2 hPa | 0 mm | - | 702 W/m² | - |
| 1787861177 | 36.67° C | 45% | 1015.3 hPa | 0 mm | - | 575 W/m² | - |
| 1787860576 | 36.67° C | 44% | 1015.5 hPa | 0 mm | - | 744 W/m² | - |
| 1787859973 | 36.67° C | 46% | 1015.3 hPa | 0 mm | - | 406 W/m² | - |
| 1787859373 | 36.11° C | 45% | 1015.6 hPa | 0 mm | - | 771 W/m² | - |
| 1787858771 | 36.11° C | 46% | 1015.7 hPa | 0 mm | - | 525 W/m² | - |
| 1787858166 | 36.11° C | 46% | 1015.6 hPa | 0 mm | - | 428 W/m² | - |
| 1787857563 | 36.11° C | 48% | 1016.2 hPa | 0 mm | - | 430 W/m² | - |
| 1787856961 | 36.11° C | 46% | 1016.1 hPa | 0 mm | - | 717 W/m² | - |
| 1787856357 | 36.11° C | 48% | 1016.2 hPa | 0 mm | - | 834 W/m² | - |
| 1787855752 | 35.56° C | 49% | 1016.2 hPa | 0 mm | - | 803 W/m² | - |
| 1787855148 | 35° C | 51% | 1016.6 hPa | 0 mm | - | 799 W/m² | - |
| 1787854543 | 35° C | 54% | 1016.2 hPa | 0 mm | - | 797 W/m² | - |
| 1787853944 | 34.44° C | 52% | 1016.3 hPa | 0 mm | - | 795 W/m² | - |
| 1787853343 | 34.44° C | 54% | 1016.7 hPa | 0 mm | - | 791 W/m² | - |
| 1787852738 | 33.89° C | 53% | 1016.6 hPa | 0 mm | - | 790 W/m² | - |
| 1787852138 | 33.89° C | 56% | 1016.7 hPa | 0 mm | - | 768 W/m² | - |
| 1787851532 | 33.33° C | 57% | 1016.9 hPa | 0 mm | - | 768 W/m² | - |
| 1787850928 | 33.33° C | 57% | 1016.8 hPa | 0 mm | - | 745 W/m² | - |
| 1787850325 | 32.78° C | 58% | 1016.8 hPa | 0 mm | - | 739 W/m² | - |
| 1787849720 | 32.78° C | 58% | 1017 hPa | 0 mm | - | 720 W/m² | - |
| 1787849119 | 32.22° C | 63% | 1017.1 hPa | 0 mm | - | 698 W/m² | - |
| 1787848519 | 31.67° C | 64% | 1017.2 hPa | 0 mm | - | 668 W/m² | - |
| 1787847914 | 31.11° C | 66% | 1017.2 hPa | 0 mm | - | 653 W/m² | - |
| 1787847310 | 31.11° C | 64% | 1017 hPa | 0 mm | - | 625 W/m² | - |
* Rain latest hour (hover to see other rain measurements)
** Current wind speed in m/s (hover to see current wind gust speed)